Time,TemperatureF,DewpointF,PressureIn,WindDirection,WindDirectionDegrees,WindSpeedMPH,WindSpeedGustMPH,Humidity,HourlyPrecipIn,Conditions,Clouds,dailyrainin,SoftwareType,DateUTC
2013-01-20 00:00:00,47.1,14.0,30.09,SW,225,0.0,-999.0,26,-99.99,,,0.00,Acu-Link.com,2013-01-20 08:00:00,
2013-01-20 00:15:00,47.5,13.5,30.08,WSW,247,0.0,-999.0,25,-99.99,,,0.00,Acu-Link.com,2013-01-20 08:15:00,
2013-01-20 00:31:00,47.7,14.5,30.08,NNW,337,0.0,-999.0,26,-99.99,,,0.00,Acu-Link.com,2013-01-20 08:31:00,
2013-01-20 00:46:00,47.3,14.2,30.09,North,0,0.0,-999.0,26,-99.99,,,0.00,Acu-Link.com,2013-01-20 08:46:00,
2013-01-20 01:01:00,46.8,13.7,30.08,NNE,22,0.0,-999.0,26,-99.99,,,0.00,Acu-Link.com,2013-01-20 09:01:00,
2013-01-20 01:17:00,46.6,14.4,30.09,NE,45,2.7,-999.0,27,-99.99,,,0.00,Acu-Link.com,2013-01-20 09:17:00,
2013-01-20 01:32:00,45.5,13.5,30.09,West,270,0.0,-999.0,27,-99.99,,,0.00,Acu-Link.com,2013-01-20 09:32:00,
2013-01-20 01:47:00,44.4,12.5,30.09,North,0,0.0,-999.0,27,-99.99,,,0.00,Acu-Link.com,2013-01-20 09:47:00,
2013-01-20 02:02:00,44.1,12.3,30.09,East,90,0.0,-999.0,27,-99.99,,,0.00,Acu-Link.com,2013-01-20 10:02:00,
2013-01-20 02:17:00,43.9,12.1,30.09,West,270,0.0,-999.0,27,-99.99,,,0.00,Acu-Link.com,2013-01-20 10:17:00,
2013-01-20 02:33:00,43.9,12.1,30.08,WNW,292,0.0,-999.0,27,-99.99,,,0.00,Acu-Link.com,2013-01-20 10:33:00,
2013-01-20 02:48:00,44.1,13.1,30.08,WSW,247,0.0,-999.0,28,-99.99,,,0.00,Acu-Link.com,2013-01-20 10:48:00,
2013-01-20 03:03:00,43.9,14.5,30.08,SW,225,0.0,-999.0,30,-99.99,,,0.00,Acu-Link.com,2013-01-20 11:03:00,
2013-01-20 03:19:00,43.5,12.6,30.07,West,270,0.0,-999.0,28,-99.99,,,0.00,Acu-Link.com,2013-01-20 11:19:00,
2013-01-20 03:34:00,43.2,10.7,30.06,WNW,292,0.0,-999.0,26,-99.99,,,0.00,Acu-Link.com,2013-01-20 11:34:00,
2013-01-20 03:49:00,43.2,12.3,30.06,West,270,1.1,-999.0,28,-99.99,,,0.00,Acu-Link.com,2013-01-20 11:49:00,
2013-01-20 04:05:00,43.0,12.9,30.06,West,270,0.0,-999.0,29,-99.99,,,0.00,Acu-Link.com,2013-01-20 12:05:00,
2013-01-20 04:20:00,43.0,13.7,30.06,SW,225,1.1,-999.0,30,-99.99,,,0.00,Acu-Link.com,2013-01-20 12:20:00,
2013-01-20 04:35:00,42.3,10.7,30.07,West,270,1.7,-999.0,27,-99.99,,,0.00,Acu-Link.com,2013-01-20 12:35:00,
2013-01-20 04:51:00,44.1,11.4,30.07,West,270,2.2,-999.0,26,-99.99,,,0.00,Acu-Link.com,2013-01-20 12:51:00,
2013-01-20 05:06:00,44.1,9.6,30.06,West,270,1.7,-999.0,24,-99.99,,,0.00,Acu-Link.com,2013-01-20 13:06:00,
2013-01-20 05:21:00,43.7,11.1,30.06,WSW,247,0.0,-999.0,26,-99.99,,,0.00,Acu-Link.com,2013-01-20 13:21:00,
2013-01-20 05:36:00,42.4,13.9,30.07,SSW,202,0.0,-999.0,31,-99.99,,,0.00,Acu-Link.com,2013-01-20 13:36:00,
2013-01-20 05:52:00,41.4,15.2,30.07,West,270,0.0,-999.0,34,-99.99,,,0.00,Acu-Link.com,2013-01-20 13:52:00,
2013-01-20 06:07:00,40.5,15.0,30.07,SSE,157,0.0,-999.0,35,-99.99,,,0.00,Acu-Link.com,2013-01-20 14:07:00,
2013-01-20 06:22:00,40.5,16.9,30.07,South,180,0.0,-999.0,38,-99.99,,,0.00,Acu-Link.com,2013-01-20 14:22:00,
2013-01-20 06:38:00,39.7,15.6,30.08,WSW,247,0.0,-999.0,37,-99.99,,,0.00,Acu-Link.com,2013-01-20 14:38:00,
2013-01-20 06:53:00,39.7,14.3,30.08,NNW,337,0.0,-999.0,35,-99.99,,,0.00,Acu-Link.com,2013-01-20 14:53:00,
2013-01-20 07:09:00,40.3,9.8,30.07,NNW,337,0.0,-999.0,28,-99.99,,,0.00,Acu-Link.com,2013-01-20 15:09:00,
2013-01-20 07:24:00,41.7,10.2,30.08,NW,315,0.0,-999.0,27,-99.99,,,0.00,Acu-Link.com,2013-01-20 15:24:00,
2013-01-20 07:39:00,43.7,11.9,30.08,SSW,202,0.0,-999.0,27,-99.99,,,0.00,Acu-Link.com,2013-01-20 15:39:00,
2013-01-20 07:56:00,44.2,14.8,30.07,South,180,0.0,-999.0,30,-99.99,,,0.00,Acu-Link.com,2013-01-20 15:56:00,
2013-01-20 08:11:00,52.7,20.5,30.08,WNW,292,0.0,-999.0,28,-99.99,,,0.00,Acu-Link.com,2013-01-20 16:11:00,
2013-01-20 08:26:00,55.6,18.4,30.08,WNW,292,1.7,-999.0,23,-99.99,,,0.00,Acu-Link.com,2013-01-20 16:26:00,
2013-01-20 08:41:00,57.4,17.8,30.08,West,270,0.0,-999.0,21,-99.99,,,0.00,Acu-Link.com,2013-01-20 16:41:00,
2013-01-20 08:56:00,59.7,14.8,30.09,NNW,337,0.0,-999.0,17,-99.99,,,0.00,Acu-Link.com,2013-01-20 16:56:00,
2013-01-20 09:12:00,62.4,17.0,30.09,NNW,337,0.0,-999.0,17,-99.99,,,0.00,Acu-Link.com,2013-01-20 17:12:00,
2013-01-20 09:27:00,66.2,22.7,30.09,South,180,1.7,-999.0,19,-99.99,,,0.00,Acu-Link.com,2013-01-20 17:27:00,
2013-01-20 09:42:00,68.9,17.8,30.08,SSE,157,0.0,-999.0,14,-99.99,,,0.00,Acu-Link.com,2013-01-20 17:42:00,
2013-01-20 09:58:00,71.1,13.9,30.09,SSE,157,0.0,-999.0,11,-99.99,,,0.00,Acu-Link.com,2013-01-20 17:58:00,
2013-01-20 10:13:00,72.5,7.9,30.08,South,180,0.0,-999.0,8,-99.99,,,0.00,Acu-Link.com,2013-01-20 18:13:00,
2013-01-20 10:29:00,73.6,8.7,30.07,South,180,2.7,-999.0,8,-99.99,,,0.00,Acu-Link.com,2013-01-20 18:29:00,
2013-01-20 10:44:00,73.6,-6.1,30.07,West,270,0.0,-999.0,4,-99.99,,,0.00,Acu-Link.com,2013-01-20 18:44:00,
2013-01-20 10:59:00,74.8,-5.3,30.07,West,270,1.7,-999.0,4,-99.99,,,0.00,Acu-Link.com,2013-01-20 18:59:00,
2013-01-20 11:15:00,76.3,-4.2,30.05,SSW,202,0.0,-999.0,4,-99.99,,,0.00,Acu-Link.com,2013-01-20 19:15:00,
2013-01-20 11:30:00,77.2,-3.6,30.04,SE,135,1.1,-999.0,4,-99.99,,,0.00,Acu-Link.com,2013-01-20 19:30:00,
2013-01-20 11:46:00,77.5,-30.3,30.04,SSW,202,0.0,-999.0,1,-99.99,,,0.00,Acu-Link.com,2013-01-20 19:46:00,
2013-01-20 12:01:00,77.9,-30.1,30.02,WNW,292,0.0,-999.0,1,-99.99,,,0.00,Acu-Link.com,2013-01-20 20:01:00,
2013-01-20 12:16:00,77.0,-17.7,30.01,SSE,157,0.0,-999.0,2,-99.99,,,0.00,Acu-Link.com,2013-01-20 20:16:00,
2013-01-20 12:31:00,77.4,-17.4,30.01,SSW,202,0.0,-999.0,2,-99.99,,,0.00,Acu-Link.com,2013-01-20 20:31:00,
2013-01-20 12:47:00,79.0,-16.4,29.99,NE,45,2.2,-999.0,2,-99.99,,,0.00,Acu-Link.com,2013-01-20 20:47:00,
2013-01-20 13:02:00,79.3,-16.2,29.98,SSW,202,0.0,-999.0,2,-99.99,,,0.00,Acu-Link.com,2013-01-20 21:02:00,
2013-01-20 13:18:00,80.2,-28.7,29.98,SSW,202,0.0,-999.0,0,-99.99,,,0.00,Acu-Link.com,2013-01-20 21:18:00,
2013-01-20 13:33:00,81.0,-15.1,29.98,NE,45,2.7,-999.0,2,-99.99,,,0.00,Acu-Link.com,2013-01-20 21:33:00,
2013-01-20 13:49:00,80.6,-7.3,29.97,SSW,202,0.0,-999.0,3,-99.99,,,0.00,Acu-Link.com,2013-01-20 21:49:00,
2013-01-20 14:04:00,79.7,-29.0,29.97,NNW,337,0.0,-999.0,1,-99.99,,,0.00,Acu-Link.com,2013-01-20 22:04:00,
2013-01-20 14:20:00,81.0,-28.2,29.96,ESE,112,1.7,-999.0,1,-99.99,,,0.00,Acu-Link.com,2013-01-20 22:20:00,
2013-01-20 14:36:00,80.2,-28.7,29.95,SE,135,0.0,-999.0,1,-99.99,,,0.00,Acu-Link.com,2013-01-20 22:36:00,
2013-01-20 15:22:00,79.3,-29.3,29.95,SSW,202,1.1,-999.0,1,-99.99,,,0.00,Acu-Link.com,2013-01-20 23:22:00,
2013-01-20 15:53:00,78.1,-17.0,29.95,WNW,292,2.2,-999.0,2,-99.99,,,0.00,Acu-Link.com,2013-01-20 23:53:00,
2013-01-20 16:09:00,74.1,-11.6,29.96,West,270,1.1,-999.0,3,-99.99,,,0.00,Acu-Link.com,2013-01-21 00:09:00,
2013-01-20 16:24:00,72.1,-7.1,29.96,West,270,1.7,-999.0,4,-99.99,,,0.00,Acu-Link.com,2013-01-21 00:24:00,
2013-01-20 16:40:00,70.3,-3.8,29.95,West,270,2.7,-999.0,5,-99.99,,,0.00,Acu-Link.com,2013-01-21 00:40:00,
2013-01-20 16:55:00,69.8,-8.7,29.96,West,270,1.1,-999.0,4,-99.99,,,0.00,Acu-Link.com,2013-01-21 00:55:00,
2013-01-20 17:11:00,68.9,-4.8,29.97,West,270,1.1,-999.0,5,-99.99,,,0.00,Acu-Link.com,2013-01-21 01:11:00,
2013-01-20 17:42:00,65.8,0.0,29.98,NW,315,0.0,-999.0,7,-99.99,,,0.00,Acu-Link.com,2013-01-21 01:42:00,
2013-01-20 17:57:00,63.7,-1.5,29.98,WSW,247,2.2,-999.0,7,-99.99,,,0.00,Acu-Link.com,2013-01-21 01:57:00,
2013-01-20 18:12:00,64.0,-1.3,29.99,WNW,292,0.0,-999.0,7,-99.99,,,0.00,Acu-Link.com,2013-01-21 02:12:00,
2013-01-20 18:27:00,62.6,3.0,29.99,NNE,22,0.0,-999.0,9,-99.99,,,0.00,Acu-Link.com,2013-01-21 02:27:00,
2013-01-20 18:43:00,60.8,3.9,29.99,WNW,292,1.1,-999.0,10,-99.99,,,0.00,Acu-Link.com,2013-01-21 02:43:00,
2013-01-20 18:58:00,59.7,5.1,30.00,SSW,202,0.0,-999.0,11,-99.99,,,0.00,Acu-Link.com,2013-01-21 02:58:00,
2013-01-20 19:13:00,57.9,1.7,30.00,WNW,292,1.7,-999.0,10,-99.99,,,0.00,Acu-Link.com,2013-01-21 03:13:00,
2013-01-20 19:29:00,57.6,1.5,30.01,NW,315,2.7,-999.0,10,-99.99,,,0.00,Acu-Link.com,2013-01-21 03:29:00,
2013-01-20 19:44:00,57.7,3.6,30.01,WNW,292,2.2,-999.0,11,-99.99,,,0.00,Acu-Link.com,2013-01-21 03:44:00,
2013-01-20 20:00:00,57.4,8.6,30.02,WNW,292,3.7,-999.0,14,-99.99,,,0.00,Acu-Link.com,2013-01-21 04:00:00,
2013-01-20 20:15:00,57.2,6.8,30.01,WSW,247,3.7,-999.0,13,-99.99,,,0.00,Acu-Link.com,2013-01-21 04:15:00,
2013-01-20 20:30:00,56.5,4.5,30.02,WSW,247,1.7,-999.0,12,-99.99,,,0.00,Acu-Link.com,2013-01-21 04:30:00,
2013-01-20 20:46:00,55.0,6.7,30.01,SSW,202,0.0,-999.0,14,-99.99,,,0.00,Acu-Link.com,2013-01-21 04:46:00,
2013-01-20 21:17:00,53.4,5.4,30.02,NE,45,0.0,-999.0,14,-99.99,,,0.00,Acu-Link.com,2013-01-21 05:17:00,
2013-01-20 21:32:00,52.3,6.1,30.02,SSW,202,0.0,-999.0,15,-99.99,,,0.00,Acu-Link.com,2013-01-21 05:32:00,
2013-01-20 21:47:00,51.1,7.8,30.02,West,270,1.1,-999.0,17,-99.99,,,0.00,Acu-Link.com,2013-01-21 05:47:00,
2013-01-20 22:02:00,50.5,9.8,30.03,SSW,202,1.7,-999.0,19,-99.99,,,0.00,Acu-Link.com,2013-01-21 06:02:00,
2013-01-20 22:18:00,50.7,8.8,30.02,SSW,202,2.7,-999.0,18,-99.99,,,0.00,Acu-Link.com,2013-01-21 06:18:00,
2013-01-20 22:33:00,51.8,5.7,30.02,South,180,0.0,-999.0,15,-99.99,,,0.00,Acu-Link.com,2013-01-21 06:33:00,
2013-01-20 22:49:00,50.2,11.8,30.02,NW,315,1.7,-999.0,21,-99.99,,,0.00,Acu-Link.com,2013-01-21 06:49:00,
2013-01-20 23:04:00,49.8,12.5,30.01,SSW,202,0.0,-999.0,22,-99.99,,,0.00,Acu-Link.com,2013-01-21 07:04:00,
2013-01-20 23:19:00,49.5,7.8,30.01,NW,315,0.0,-999.0,18,-99.99,,,0.00,Acu-Link.com,2013-01-21 07:19:00,
2013-01-20 23:35:00,53.6,-1.6,30.01,West,270,2.7,-999.0,10,-99.99,,,0.00,Acu-Link.com,2013-01-21 07:35:00,
2013-01-20 23:50:00,58.6,-2.5,30.01,West,270,0.0,-999.0,8,-99.99,,,0.00,Acu-Link.com,2013-01-21 07:50:00,